Total_Precipitation_Accumulation
0.14 0.20 0.22 0.24 0.23 0.21 0.16 0.14 0.22 0.32 0.49 0.67 0.83 1.09 1.00 1.02 1.09 1.15 1.08 1.03 0.97 1.01 1.13 1.30 1.36 1.35 1.40 1.45 1.50 1.66 1.66 1.64 1.75 1.93 1.98 2.02 2.03 2.06 2.13 2.13 2.03 2.17 2.18 2.27
0.17 0.16 0.16 0.18 0.20 0.17 0.13 0.12 0.13 0.26 0.52 0.72 0.82 0.94 0.98 0.88 0.94 1.15 1.10 1.04 1.05 1.14 1.27 1.28 1.22 1.23 1.25 1.21 1.29 1.51 1.65 1.74 1.83 1.89 1.86 1.97 2.01 2.00 2.02 2.08 2.13 2.16 2.17 2.28
0.23 0.18 0.20 0.28 0.24 0.21 0.18 0.17 0.18 0.32 0.53 0.74 0.90 0.83 0.91 0.91 0.92 0.92 0.93 0.95 1.08 1.20 1.23 1.23 1.28 1.28 1.18 1.08 1.17 1.50 1.64 1.70 1.92 2.03 1.96 2.05 2.08 2.10 2.08 2.10 2.24 2.29 2.38 2.43
0.31 0.34 0.41 0.33 0.29 0.28 0.31 0.34 0.31 0.35 0.51 0.74 0.98 0.95 0.90 0.92 0.92 0.86 0.75 0.86 0.98 1.08 1.14 1.18 1.20 1.19 1.15 1.15 1.21 1.49 1.74 1.89 2.19 2.36 2.21 2.20 2.23 2.24 2.30 2.41 2.45 2.50 2.52 2.43
0.47 0.51 0.53 0.46 0.42 0.44 0.57 0.76 0.60 0.60 0.79 0.84 0.83 0.90 0.99 0.96 0.90 0.81 0.84 0.93 0.96 1.06 1.18 1.31 1.45 1.46 1.42 1.47 1.58 1.76 1.96 2.13 2.40 2.64 2.74 2.68 2.49 2.54 2.63 2.63 2.60 2.66 2.72 2.68
0.64 0.73 0.84 0.76 0.61 0.56 0.74 1.23 1.00 0.86 0.92 0.95 0.95 1.18 1.17 0.91 0.79 0.75 0.82 0.98 1.13 1.29 1.32 1.38 1.58 1.60 1.64 1.76 1.99 2.13 2.11 2.14 2.37 2.65 2.76 2.72 2.67 2.85 2.96 2.84 2.73 2.77 2.65 2.52
0.76 0.87 0.88 0.79 0.69 0.76 1.33 1.75 1.28 1.14 1.16 1.22 1.22 1.18 1.07 0.96 0.94 0.83 0.81 0.95 1.01 1.04 1.18 1.33 1.50 1.64 1.84 1.94 2.08 2.18 2.24 2.25 2.37 2.62 2.91 2.87 2.92 3.00 3.06 3.04 3.04 3.02 2.90 2.76
0.90 1.15 1.30 0.86 0.78 1.21 1.62 1.45 1.50 1.51 1.47 1.39 1.22 1.07 0.99 0.97 1.02 0.92 0.91 0.99 1.04 1.00 1.10 1.31 1.54 1.80 1.94 2.00 2.11 2.28 2.34 2.34 2.40 2.68 2.81 2.85 3.00 3.06 3.17 3.29 3.28 3.24 3.20 2.91
1.21 1.45 1.33 1.06 1.15 1.25 1.35 1.47 1.52 1.45 1.46 1.41 1.33 1.21 1.13 1.11 1.10 1.07 1.12 1.12 1.21 1.25 1.25 1.39 1.59 1.81 2.04 2.11 2.14 2.11 2.10 2.14 2.26 2.44 2.58 2.76 2.89 2.84 2.93 3.08 3.04 3.03 2.98 2.81
1.65 1.63 1.46 1.31 1.25 1.26 1.24 1.31 1.29 1.21 1.18 1.16 1.18 1.18 1.17 1.19 1.26 1.27 1.34 1.31 1.36 1.49 1.51 1.54 1.63 1.80 1.98 2.02 2.03 2.02 1.96 1.96 2.11 2.35 2.50 2.62 2.70 2.66 2.72 2.76 2.81 2.85 2.85 2.75
2.12 2.07 1.88 1.72 1.52 1.46 1.34 1.34 1.30 1.20 1.17 1.12 1.04 1.07 1.09 1.07 1.17 1.23 1.31 1.36 1.37 1.53 1.64 1.65 1.69 1.87 2.01 2.06 2.12 2.16 2.11 2.10 2.23 2.33 2.41 2.57 2.66 2.70 2.73 2.70 2.69 2.69 2.65 2.57
2.48 2.25 2.15 2.12 1.75 1.65 1.61 1.47 1.34 1.34 1.33 1.21 1.06 1.04 1.09 1.11 1.17 1.23 1.31 1.45 1.52 1.62 1.68 1.65 1.68 1.83 1.93 2.11 2.31 2.39 2.31 2.27 2.26 2.23 2.30 2.30 2.33 2.31 2.31 2.27 2.28 2.24 2.19 2.10
1.91 1.93 2.02 2.18 2.02 1.72 1.56 1.47 1.39 1.41 1.42 1.29 1.18 1.12 1.05 1.06 1.17 1.27 1.42 1.57 1.74 1.83 1.76 1.70 1.75 1.86 1.91 2.05 2.31 2.47 2.40 2.26 2.16 2.08 2.09 2.10 2.15 2.21 2.25 2.19 2.13 2.04 1.94 1.80
1.82 2.11 2.25 2.19 2.24 2.12 1.81 1.61 1.46 1.41 1.38 1.25 1.20 1.19 1.18 1.18 1.19 1.30 1.51 1.64 1.66 1.73 1.74 1.69 1.71 1.83 1.89 2.01 2.29 2.47 2.41 2.30 2.11 2.01 1.99 1.99 2.12 2.19 2.18 2.16 2.13 1.92 1.78 1.71
1.98 2.10 2.18 2.02 2.04 2.16 2.14 2.00 1.80 1.64 1.49 1.37 1.33 1.33 1.28 1.26 1.27 1.34 1.44 1.62 1.76 1.79 1.69 1.63 1.65 1.70 1.76 1.89 2.10 2.29 2.36 2.28 2.16 2.12 2.13 2.04 1.99 2.04 2.04 2.03 2.07 1.99 1.80 1.77
1.89 1.81 1.89 2.00 2.08 2.07 2.06 2.02 1.94 1.83 1.60 1.46 1.49 1.47 1.38 1.37 1.40 1.43 1.49 1.63 1.91 2.06 1.92 1.73 1.65 1.65 1.72 1.87 1.97 1.97 2.05 2.07 2.04 2.10 2.10 2.05 2.05 2.07 2.10 2.15 2.18 2.08 1.94 1.84
1.72 1.64 1.65 1.78 1.91 2.03 2.04 1.87 1.77 1.72 1.65 1.56 1.54 1.51 1.47 1.46 1.52 1.67 1.75 1.81 1.85 1.86 1.86 1.85 1.77 1.70 1.76 1.89 2.02 1.95 1.81 1.75 1.72 1.69 1.74 1.84 1.92 2.02 2.13 2.20 2.24 2.13 1.91 1.76
1.44 1.44 1.52 1.59 1.67 1.85 1.90 1.74 1.63 1.59 1.58 1.55 1.52 1.48 1.48 1.55 1.78 2.04 2.09 2.00 1.99 1.88 1.72 1.69 1.70 1.71 1.81 1.87 1.97 1.99 1.87 1.68 1.52 1.48 1.53 1.66 1.88 2.03 2.10 2.05 2.00 1.95 1.85 1.76
1.26 1.29 1.35 1.39 1.43 1.52 1.64 1.71 1.72 1.64 1.55 1.54 1.62 1.67 1.68 1.69 1.88 2.15 2.22 2.21 2.18 2.03 1.75 1.60 1.60 1.58 1.68 1.77 1.90 1.87 1.69 1.50 1.34 1.32 1.39 1.55 1.79 2.10 2.11 1.90 1.78 1.75 1.80 1.79
1.26 1.26 1.29 1.23 1.21 1.27 1.40 1.53 1.58 1.61 1.61 1.61 1.66 1.71 1.78 1.84 2.02 2.22 2.30 2.35 2.23 1.99 1.72 1.52 1.41 1.39 1.43 1.61 1.73 1.68 1.56 1.43 1.31 1.29 1.35 1.48 1.75 2.05 1.97 1.80 1.70 1.71 1.75 1.77
1.26 1.26 1.30 1.29 1.25 1.20 1.25 1.34 1.40 1.52 1.62 1.64 1.76 1.87 1.91 1.90 2.02 2.26 2.46 2.42 2.08 1.76 1.57 1.52 1.34 1.24 1.27 1.47 1.57 1.50 1.46 1.43 1.38 1.40 1.45 1.61 1.87 2.04 1.94 1.81 1.75 1.72 1.72 1.79
1.23 1.21 1.22 1.32 1.38 1.33 1.30 1.32 1.33 1.40 1.51 1.53 1.65 1.79 1.83 1.93 1.93 1.93 2.03 2.20 2.01 1.78 1.45 1.28 1.24 1.28 1.36 1.48 1.49 1.43 1.45 1.46 1.45 1.50 1.57 1.70 1.84 1.90 1.86 1.81 1.84 1.80 1.77 1.79
1.26 1.22 1.23 1.34 1.47 1.48 1.36 1.35 1.35 1.43 1.55 1.53 1.56 1.65 1.79 1.94 1.94 1.96 1.85 1.70 1.64 1.61 1.38 1.25 1.27 1.33 1.37 1.39 1.49 1.50 1.53 1.51 1.44 1.47 1.56 1.65 1.73 1.77 1.80 1.82 1.80 1.74 1.78 1.74
1.22 1.26 1.30 1.30 1.36 1.49 1.57 1.54 1.49 1.52 1.56 1.44 1.38 1.39 1.53 1.69 1.68 1.61 1.66 1.70 1.61 1.57 1.40 1.35 1.32 1.30 1.33 1.29 1.37 1.49 1.55 1.47 1.39 1.38 1.48 1.56 1.59 1.63 1.76 1.86 1.80 1.71 1.67 1.62
1.35 1.37 1.39 1.40 1.48 1.59 1.64 1.60 1.61 1.63 1.63 1.51 1.39 1.29 1.30 1.50 1.60 1.51 1.54 1.57 1.55 1.49 1.37 1.36 1.37 1.41 1.37 1.39 1.41 1.41 1.37 1.28 1.28 1.32 1.40 1.50 1.56 1.58 1.65 1.66 1.59 1.60 1.59 1.54
1.49 1.43 1.40 1.42 1.45 1.50 1.51 1.61 1.71 1.71 1.75 1.73 1.55 1.32 1.26 1.34 1.40 1.47 1.54 1.53 1.55 1.60 1.42 1.34 1.32 1.35 1.37 1.46 1.46 1.35 1.22 1.20 1.24 1.26 1.33 1.45 1.46 1.51 1.58 1.55 1.46 1.49 1.48 1.45
1.44 1.39 1.37 1.37 1.34 1.31 1.31 1.41 1.57 1.71 1.87 1.90 1.68 1.38 1.29 1.33 1.40 1.46 1.48 1.49 1.56 1.61 1.54 1.41 1.32 1.30 1.31 1.35 1.35 1.28 1.21 1.16 1.19 1.22 1.27 1.30 1.34 1.44 1.51 1.53 1.44 1.40 1.42 1.40